Location: Azul
(36.7830°S, 59.8500°W)
Time: 20:45:46
(UTC-03:00)

RS-44 - Pass Details

Date: 25 September 2024
Orbit: 1174 x 1511 km, 82.5° (Epoch: 11 October)

Event Time Altitude Azimuth Distance (km) Brightness Sun altitude
Rises 04:48:39 0° 209° (SSW) 4,530 ? -23.3°
Reaches altitude 10° 04:53:40 10° 234° (SW) 3,606 ? -22.4°
Enters shadow 04:53:44 10° 235° (SW) 3,598 ? -22.4°
